Time,TemperatureF,DewpointF,PressureIn,WindDirection,WindDirectionDegrees,WindSpeedMPH,WindSpeedGustMPH,Humidity,HourlyPrecipIn,Conditions,Clouds,dailyrainin,SoftwareType,DateUTC
2014-11-21 00:03:00,16.0,12.6,30.26,West,275,4.0,4.0,86,0.00,,,0.00,Wunderground v.1.15,2014-11-21 05:03:00,
2014-11-21 00:08:00,15.9,12.5,30.26,WNW,294,7.0,9.0,86,0.00,,,0.00,Wunderground v.1.15,2014-11-21 05:08:00,
2014-11-21 00:13:00,15.9,12.5,30.27,WNW,301,2.0,5.0,86,0.00,,,0.00,Wunderground v.1.15,2014-11-21 05:13:00,
2014-11-21 00:18:00,15.8,12.6,30.27,NW,306,6.0,8.0,87,0.00,,,0.00,Wunderground v.1.15,2014-11-21 05:18:00,
2014-11-21 00:24:00,15.8,12.6,30.27,WNW,294,6.0,6.0,87,0.00,,,0.00,Wunderground v.1.15,2014-11-21 05:24:00,
2014-11-21 00:29:00,15.8,12.6,30.28,WNW,286,9.0,9.0,87,0.00,,,0.00,Wunderground v.1.15,2014-11-21 05:29:00,
2014-11-21 00:34:00,15.8,12.6,30.28,WNW,300,6.0,7.0,87,0.00,,,0.00,Wunderground v.1.15,2014-11-21 05:34:00,
2014-11-21 00:39:00,15.7,12.5,30.28,WNW,292,7.0,7.0,87,0.00,,,0.00,Wunderground v.1.15,2014-11-21 05:39:00,
2014-11-21 00:44:00,15.6,12.4,30.28,WNW,292,2.0,6.0,87,0.00,,,0.00,Wunderground v.1.15,2014-11-21 05:44:00,
2014-11-21 00:50:00,15.5,12.3,30.29,WNW,294,3.0,4.0,87,0.00,,,0.00,Wunderground v.1.15,2014-11-21 05:50:00,
2014-11-21 00:55:00,15.4,12.2,30.29,WNW,298,4.0,6.0,87,0.00,,,0.00,Wunderground v.1.15,2014-11-21 05:55:00,
2014-11-21 01:00:00,15.3,12.1,30.30,NW,312,3.0,4.0,87,0.00,,,0.00,Wunderground v.1.15,2014-11-21 06:00:00,
2014-11-21 01:05:00,15.3,12.1,30.30,NW,313,4.0,4.0,87,0.00,,,0.00,Wunderground v.1.15,2014-11-21 06:05:00,
2014-11-21 01:10:00,15.2,12.0,30.30,West,281,6.0,6.0,87,0.00,,,0.00,Wunderground v.1.15,2014-11-21 06:10:00,
2014-11-21 01:16:00,15.2,12.3,30.30,WNW,289,3.0,6.0,88,0.00,,,0.00,Wunderground v.1.15,2014-11-21 06:16:00,
2014-11-21 01:21:00,15.1,12.2,30.31,WNW,293,2.0,4.0,88,0.00,,,0.00,Wunderground v.1.15,2014-11-21 06:21:00,
2014-11-21 01:26:00,15.0,12.1,30.31,West,271,2.0,7.0,88,0.00,,,0.00,Wunderground v.1.15,2014-11-21 06:26:00,
2014-11-21 01:31:00,14.9,12.0,30.31,NNW,331,3.0,3.0,88,0.00,,,0.00,Wunderground v.1.15,2014-11-21 06:31:00,
2014-11-21 01:36:00,14.9,12.0,30.31,NW,326,4.0,4.0,88,0.00,,,0.00,Wunderground v.1.15,2014-11-21 06:36:00,
2014-11-21 01:42:00,14.9,12.0,30.31,WNW,302,2.0,5.0,88,0.00,,,0.00,Wunderground v.1.15,2014-11-21 06:42:00,
2014-11-21 01:47:00,14.9,12.0,30.32,NW,323,6.0,6.0,88,0.00,,,0.00,Wunderground v.1.15,2014-11-21 06:47:00,
2014-11-21 01:52:00,14.9,12.0,30.32,NW,321,4.0,6.0,88,0.00,,,0.00,Wunderground v.1.15,2014-11-21 06:52:00,
2014-11-21 01:57:00,15.0,12.1,30.32,West,280,4.0,6.0,88,0.00,,,0.00,Wunderground v.1.15,2014-11-21 06:57:00,
2014-11-21 02:02:00,14.9,12.0,30.33,WNW,285,5.0,5.0,88,0.00,,,0.00,Wunderground v.1.15,2014-11-21 07:02:00,
2014-11-21 02:07:00,14.9,12.0,30.33,WNW,300,2.0,7.0,88,0.00,,,0.00,Wunderground v.1.15,2014-11-21 07:07:00,
2014-11-21 02:12:00,14.8,11.9,30.33,West,281,7.0,9.0,88,0.00,,,0.00,Wunderground v.1.15,2014-11-21 07:12:00,
2014-11-21 02:17:00,14.8,11.9,30.33,North,349,2.0,9.0,88,0.00,,,0.00,Wunderground v.1.15,2014-11-21 07:17:00,
2014-11-21 02:22:00,14.7,11.8,30.34,WNW,294,3.0,9.0,88,0.00,,,0.00,Wunderground v.1.15,2014-11-21 07:22:00,
2014-11-21 02:27:00,14.6,11.7,30.34,West,278,5.0,9.0,88,0.00,,,0.00,Wunderground v.1.15,2014-11-21 07:27:00,
2014-11-21 02:32:00,14.6,11.7,30.34,WNW,288,3.0,6.0,88,0.00,,,0.00,Wunderground v.1.15,2014-11-21 07:32:00,
2014-11-21 02:37:00,14.6,11.7,30.34,WNW,294,3.0,8.0,88,0.00,,,0.00,Wunderground v.1.15,2014-11-21 07:37:00,
2014-11-21 02:42:00,14.5,11.6,30.35,WNW,292,3.0,7.0,88,0.00,,,0.00,Wunderground v.1.15,2014-11-21 07:42:00,
2014-11-21 02:47:00,14.4,11.5,30.35,NW,307,4.0,9.0,88,0.00,,,0.00,Wunderground v.1.15,2014-11-21 07:47:00,
2014-11-21 02:52:00,14.4,11.5,30.36,West,279,6.0,9.0,88,0.00,,,0.00,Wunderground v.1.15,2014-11-21 07:52:00,
2014-11-21 02:57:00,14.5,11.6,30.36,West,279,3.0,11.0,88,0.00,,,0.00,Wunderground v.1.15,2014-11-21 07:57:00,
2014-11-21 03:02:00,14.5,11.6,30.36,WNW,288,6.0,10.0,88,0.00,,,0.00,Wunderground v.1.15,2014-11-21 08:02:00,
2014-11-21 03:07:00,14.5,11.6,30.36,WNW,284,6.0,10.0,88,0.00,,,0.00,Wunderground v.1.15,2014-11-21 08:07:00,
2014-11-21 03:12:00,14.5,11.6,30.37,WNW,294,6.0,8.0,88,0.00,,,0.00,Wunderground v.1.15,2014-11-21 08:12:00,
2014-11-21 03:17:00,14.4,11.5,30.37,NW,308,8.0,8.0,88,0.00,,,0.00,Wunderground v.1.15,2014-11-21 08:17:00,
2014-11-21 03:22:00,14.4,11.5,30.37,NW,313,2.0,10.0,88,0.00,,,0.00,Wunderground v.1.15,2014-11-21 08:22:00,
2014-11-21 03:27:00,14.2,11.3,30.37,West,263,4.0,10.0,88,0.00,,,0.00,Wunderground v.1.15,2014-11-21 08:27:00,
2014-11-21 03:32:00,14.1,11.2,30.38,WNW,299,4.0,9.0,88,0.00,,,0.00,Wunderground v.1.15,2014-11-21 08:32:00,
2014-11-21 03:37:00,14.1,11.2,30.38,WNW,285,5.0,9.0,88,0.00,,,0.00,Wunderground v.1.15,2014-11-21 08:37:00,
2014-11-21 03:42:00,14.0,11.1,30.38,NW,309,5.0,9.0,88,0.00,,,0.00,Wunderground v.1.15,2014-11-21 08:42:00,
2014-11-21 03:47:00,14.0,11.1,30.38,WNW,296,4.0,9.0,88,0.00,,,0.00,Wunderground v.1.15,2014-11-21 08:47:00,
2014-11-21 03:52:00,13.9,11.0,30.38,WNW,297,4.0,9.0,88,0.00,,,0.00,Wunderground v.1.15,2014-11-21 08:52:00,
2014-11-21 03:57:00,13.9,11.0,30.38,WNW,300,6.0,9.0,88,0.00,,,0.00,Wunderground v.1.15,2014-11-21 08:57:00,
2014-11-21 04:02:00,13.8,10.9,30.38,NW,321,1.0,6.0,88,0.00,,,0.00,Wunderground v.1.15,2014-11-21 09:02:00,
2014-11-21 04:07:00,13.7,11.1,30.38,NW,306,6.0,9.0,89,0.00,,,0.00,Wunderground v.1.15,2014-11-21 09:07:00,
2014-11-21 04:12:00,13.8,11.2,30.39,West,275,4.0,9.0,89,0.00,,,0.00,Wunderground v.1.15,2014-11-21 09:12:00,
2014-11-21 04:17:00,13.9,11.3,30.39,WNW,296,4.0,9.0,89,0.00,,,0.00,Wunderground v.1.15,2014-11-21 09:17:00,
2014-11-21 04:22:00,13.8,10.9,30.39,WNW,300,6.0,12.0,88,0.00,,,0.00,Wunderground v.1.15,2014-11-21 09:22:00,
2014-11-21 04:27:00,13.8,10.9,30.39,NW,315,2.0,12.0,88,0.00,,,0.00,Wunderground v.1.15,2014-11-21 09:27:00,
2014-11-21 04:32:00,13.6,10.7,30.40,WNW,297,5.0,9.0,88,0.00,,,0.00,Wunderground v.1.15,2014-11-21 09:32:00,
2014-11-21 04:37:00,13.5,10.6,30.40,WNW,294,6.0,10.0,88,0.00,,,0.00,Wunderground v.1.15,2014-11-21 09:37:00,
2014-11-21 04:42:00,13.5,10.6,30.40,West,273,8.0,9.0,88,0.00,,,0.00,Wunderground v.1.15,2014-11-21 09:42:00,
2014-11-21 04:47:00,13.4,10.8,30.40,WNW,298,11.0,11.0,89,0.00,,,0.00,Wunderground v.1.15,2014-11-21 09:47:00,
2014-11-21 04:52:00,13.4,10.8,30.40,WNW,300,6.0,9.0,89,0.00,,,0.00,Wunderground v.1.15,2014-11-21 09:52:00,
2014-11-21 04:57:00,13.4,10.8,30.41,WNW,302,5.0,9.0,89,0.00,,,0.00,Wunderground v.1.15,2014-11-21 09:57:00,
2014-11-21 05:02:00,13.3,10.7,30.41,NNW,344,4.0,7.0,89,0.00,,,0.00,Wunderground v.1.15,2014-11-21 10:02:00,
2014-11-21 05:07:00,13.3,10.7,30.41,WNW,290,6.0,10.0,89,0.00,,,0.00,Wunderground v.1.15,2014-11-21 10:07:00,
2014-11-21 05:12:00,13.2,10.6,30.42,WNW,296,4.0,6.0,89,0.00,,,0.00,Wunderground v.1.15,2014-11-21 10:12:00,
2014-11-21 05:17:00,13.2,10.6,30.42,WNW,292,6.0,8.0,89,0.00,,,0.00,Wunderground v.1.15,2014-11-21 10:17:00,
2014-11-21 05:22:00,13.1,10.5,30.43,WNW,294,6.0,10.0,89,0.00,,,0.00,Wunderground v.1.15,2014-11-21 10:22:00,
2014-11-21 05:27:00,13.1,10.5,30.43,NW,322,4.0,10.0,89,0.00,,,0.00,Wunderground v.1.15,2014-11-21 10:27:00,
2014-11-21 05:32:00,13.0,10.4,30.43,NW,308,6.0,7.0,89,0.00,,,0.00,Wunderground v.1.15,2014-11-21 10:32:00,
2014-11-21 05:37:00,13.0,10.4,30.43,WNW,292,7.0,9.0,89,0.00,,,0.00,Wunderground v.1.15,2014-11-21 10:37:00,
2014-11-21 05:42:00,12.9,10.3,30.44,WNW,301,3.0,9.0,89,0.00,,,0.00,Wunderground v.1.15,2014-11-21 10:42:00,
2014-11-21 05:47:00,12.9,10.3,30.44,NW,322,4.0,9.0,89,0.00,,,0.00,Wunderground v.1.15,2014-11-21 10:47:00,
2014-11-21 05:52:00,12.8,10.2,30.44,WNW,289,4.0,7.0,89,0.00,,,0.00,Wunderground v.1.15,2014-11-21 10:52:00,
2014-11-21 05:57:00,12.8,10.2,30.44,WNW,300,1.0,8.0,89,0.00,,,0.00,Wunderground v.1.15,2014-11-21 10:57:00,
2014-11-21 06:02:00,12.7,10.1,30.44,West,281,2.0,5.0,89,0.00,,,0.00,Wunderground v.1.15,2014-11-21 11:02:00,
2014-11-21 06:08:00,12.7,10.1,30.45,NW,313,2.0,8.0,89,0.00,,,0.00,Wunderground v.1.15,2014-11-21 11:08:00,
2014-11-21 06:13:00,12.6,10.0,30.45,WNW,301,7.0,7.0,89,0.00,,,0.00,Wunderground v.1.15,2014-11-21 11:13:00,
2014-11-21 06:18:00,12.6,10.0,30.45,NW,326,4.0,10.0,89,0.00,,,0.00,Wunderground v.1.15,2014-11-21 11:18:00,
2014-11-21 06:23:00,12.6,10.0,30.45,NNW,327,3.0,6.0,89,0.00,,,0.00,Wunderground v.1.15,2014-11-21 11:23:00,
2014-11-21 06:28:00,12.5,9.9,30.45,NNE,21,1.0,8.0,89,0.00,,,0.00,Wunderground v.1.15,2014-11-21 11:28:00,
2014-11-21 06:33:00,12.5,9.9,30.46,WNW,300,5.0,6.0,89,0.00,,,0.00,Wunderground v.1.15,2014-11-21 11:33:00,
2014-11-21 06:38:00,12.5,9.9,30.46,NW,309,2.0,8.0,89,0.00,,,0.00,Wunderground v.1.15,2014-11-21 11:38:00,
2014-11-21 06:43:00,12.4,9.8,30.47,NNW,333,3.0,9.0,89,0.00,,,0.00,Wunderground v.1.15,2014-11-21 11:43:00,
2014-11-21 06:48:00,12.3,9.7,30.47,NW,304,5.0,9.0,89,0.00,,,0.00,Wunderground v.1.15,2014-11-21 11:48:00,
2014-11-21 06:53:00,12.3,9.7,30.48,WNW,288,5.0,6.0,89,0.00,,,0.00,Wunderground v.1.15,2014-11-21 11:53:00,
2014-11-21 06:58:00,12.3,9.7,30.47,NW,304,3.0,6.0,89,0.00,,,0.00,Wunderground v.1.15,2014-11-21 11:58:00,
2014-11-21 07:03:00,12.3,9.7,30.48,WNW,291,5.0,9.0,89,0.00,,,0.00,Wunderground v.1.15,2014-11-21 12:03:00,
2014-11-21 07:08:00,12.2,9.6,30.48,NW,325,3.0,9.0,89,0.00,,,0.00,Wunderground v.1.15,2014-11-21 12:08:00,
2014-11-21 07:13:00,12.1,9.7,30.48,NW,309,5.0,6.0,90,0.00,,,0.00,Wunderground v.1.15,2014-11-21 12:13:00,
2014-11-21 07:18:00,12.1,9.5,30.48,WNW,290,2.0,7.0,89,0.00,,,0.00,Wunderground v.1.15,2014-11-21 12:18:00,
2014-11-21 07:23:00,11.9,9.3,30.49,WNW,299,6.0,7.0,89,0.00,,,0.00,Wunderground v.1.15,2014-11-21 12:23:00,
2014-11-21 07:28:00,11.8,9.2,30.49,WNW,284,0.0,9.0,89,0.00,,,0.00,Wunderground v.1.15,2014-11-21 12:28:00,
2014-11-21 07:33:00,11.7,9.3,30.50,West,279,5.0,6.0,90,0.00,,,0.00,Wunderground v.1.15,2014-11-21 12:33:00,
2014-11-21 07:38:00,11.6,9.2,30.50,West,279,5.0,7.0,90,0.00,,,0.00,Wunderground v.1.15,2014-11-21 12:38:00,
2014-11-21 07:43:00,11.6,9.2,30.50,NW,309,3.0,7.0,90,0.00,,,0.00,Wunderground v.1.15,2014-11-21 12:43:00,
2014-11-21 07:48:00,11.5,9.1,30.50,WNW,287,1.0,7.0,90,0.00,,,0.00,Wunderground v.1.15,2014-11-21 12:48:00,
2014-11-21 07:53:00,11.5,9.1,30.51,WNW,296,3.0,9.0,90,0.00,,,0.00,Wunderground v.1.15,2014-11-21 12:53:00,
2014-11-21 07:58:00,11.5,9.1,30.51,NW,319,3.0,9.0,90,0.00,,,0.00,Wunderground v.1.15,2014-11-21 12:58:00,
2014-11-21 08:03:00,11.6,9.2,30.51,WNW,296,4.0,6.0,90,0.00,,,0.00,Wunderground v.1.15,2014-11-21 13:03:00,
2014-11-21 08:08:00,11.7,9.3,30.51,WNW,292,3.0,6.0,90,0.00,,,0.00,Wunderground v.1.15,2014-11-21 13:08:00,
2014-11-21 08:13:00,11.7,9.3,30.52,WNW,296,5.0,7.0,90,0.00,,,0.00,Wunderground v.1.15,2014-11-21 13:13:00,
2014-11-21 08:18:00,11.8,9.4,30.52,NW,306,3.0,7.0,90,0.00,,,0.00,Wunderground v.1.15,2014-11-21 13:18:00,
2014-11-21 08:23:00,12.0,9.6,30.52,WNW,292,5.0,7.0,90,0.00,,,0.00,Wunderground v.1.15,2014-11-21 13:23:00,
2014-11-21 08:28:00,12.1,9.7,30.52,WNW,292,4.0,7.0,90,0.00,,,0.00,Wunderground v.1.15,2014-11-21 13:28:00,
2014-11-21 08:33:00,12.3,9.9,30.52,NW,314,5.0,6.0,90,0.00,,,0.00,Wunderground v.1.15,2014-11-21 13:33:00,
2014-11-21 08:38:00,12.5,9.9,30.52,WNW,292,3.0,6.0,89,0.00,,,0.00,Wunderground v.1.15,2014-11-21 13:38:00,
2014-11-21 08:43:00,12.7,10.1,30.53,WNW,299,3.0,5.0,89,0.00,,,0.00,Wunderground v.1.15,2014-11-21 13:43:00,
2014-11-21 08:48:00,12.8,10.2,30.53,NW,317,2.0,5.0,89,0.00,,,0.00,Wunderground v.1.15,2014-11-21 13:48:00,
2014-11-21 08:53:00,13.1,10.5,30.53,WNW,300,2.0,5.0,89,0.00,,,0.00,Wunderground v.1.15,2014-11-21 13:53:00,
2014-11-21 08:58:00,13.3,10.7,30.53,NW,308,4.0,5.0,89,0.00,,,0.00,Wunderground v.1.15,2014-11-21 13:58:00,
2014-11-21 09:03:00,13.6,10.7,30.53,NW,306,1.0,3.0,88,0.00,,,0.00,Wunderground v.1.15,2014-11-21 14:03:00,
2014-11-21 09:08:00,13.8,10.9,30.53,WNW,301,2.0,5.0,88,0.00,,,0.00,Wunderground v.1.15,2014-11-21 14:08:00,
2014-11-21 09:13:00,14.1,11.2,30.53,WNW,293,0.0,4.0,88,0.00,,,0.00,Wunderground v.1.15,2014-11-21 14:13:00,
2014-11-21 09:18:00,14.5,11.3,30.52,WNW,286,3.0,5.0,87,0.00,,,0.00,Wunderground v.1.15,2014-11-21 14:18:00,
2014-11-21 09:23:00,14.9,11.7,30.53,WNW,299,4.0,5.0,87,0.00,,,0.00,Wunderground v.1.15,2014-11-21 14:23:00,
2014-11-21 09:28:00,15.1,11.7,30.53,NW,306,4.0,5.0,86,0.00,,,0.00,Wunderground v.1.15,2014-11-21 14:28:00,
2014-11-21 09:33:00,15.3,11.6,30.53,WNW,296,1.0,4.0,85,0.00,,,0.00,Wunderground v.1.15,2014-11-21 14:33:00,
2014-11-21 09:38:00,15.7,12.0,30.54,WNW,296,1.0,4.0,85,0.00,,,0.00,Wunderground v.1.15,2014-11-21 14:38:00,
2014-11-21 09:43:00,16.0,12.0,30.54,WNW,296,1.0,3.0,84,0.00,,,0.00,Wunderground v.1.15,2014-11-21 14:43:00,
2014-11-21 09:48:00,16.3,12.0,30.54,WNW,296,4.0,4.0,83,0.00,,,0.00,Wunderground v.1.15,2014-11-21 14:48:00,
2014-11-21 09:53:00,16.5,12.0,30.53,WNW,296,3.0,5.0,82,0.00,,,0.00,Wunderground v.1.15,2014-11-21 14:53:00,
2014-11-21 09:58:00,16.8,12.3,30.54,WNW,296,2.0,5.0,82,0.00,,,0.00,Wunderground v.1.15,2014-11-21 14:58:00,
2014-11-21 10:03:00,17.3,12.5,30.54,WNW,293,1.0,3.0,81,0.00,,,0.00,Wunderground v.1.15,2014-11-21 15:03:00,
2014-11-21 10:08:00,17.7,12.6,30.54,WNW,296,4.0,5.0,80,0.00,,,0.00,Wunderground v.1.15,2014-11-21 15:08:00,
2014-11-21 10:13:00,17.9,12.2,30.54,NNW,343,1.0,5.0,78,0.00,,,0.00,Wunderground v.1.15,2014-11-21 15:13:00,
2014-11-21 10:18:00,18.1,12.1,30.55,WNW,298,1.0,5.0,77,0.00,,,0.00,Wunderground v.1.15,2014-11-21 15:18:00,
2014-11-21 10:23:00,18.4,12.1,30.55,WNW,288,1.0,8.0,76,0.00,,,0.00,Wunderground v.1.15,2014-11-21 15:23:00,
2014-11-21 10:28:00,18.6,11.7,30.55,West,277,3.0,8.0,74,0.00,,,0.00,Wunderground v.1.15,2014-11-21 15:28:00,
2014-11-21 10:33:00,18.8,11.6,30.55,NW,321,4.0,7.0,73,0.00,,,0.00,Wunderground v.1.15,2014-11-21 15:33:00,
2014-11-21 10:38:00,19.1,11.9,30.56,WSW,244,3.0,7.0,73,0.00,,,0.00,Wunderground v.1.15,2014-11-21 15:38:00,
2014-11-21 10:43:00,19.4,11.8,30.56,NW,317,3.0,9.0,72,0.00,,,0.00,Wunderground v.1.15,2014-11-21 15:43:00,
2014-11-21 10:48:00,19.7,11.8,30.56,WNW,294,5.0,9.0,71,0.00,,,0.00,Wunderground v.1.15,2014-11-21 15:48:00,
2014-11-21 10:53:00,19.8,11.9,30.56,WNW,289,4.0,7.0,71,0.00,,,0.00,Wunderground v.1.15,2014-11-21 15:53:00,
2014-11-21 10:58:00,20.0,12.1,30.57,WNW,298,3.0,7.0,71,0.00,,,0.00,Wunderground v.1.15,2014-11-21 15:58:00,
2014-11-21 11:03:00,20.3,12.1,30.57,WNW,302,3.0,4.0,70,0.00,,,0.00,Wunderground v.1.15,2014-11-21 16:03:00,
2014-11-21 11:08:00,20.7,12.8,30.57,WNW,283,1.0,6.0,71,0.00,,,0.00,Wunderground v.1.15,2014-11-21 16:08:00,
2014-11-21 11:13:00,20.9,12.0,30.57,WSW,241,1.0,5.0,68,0.00,,,0.00,Wunderground v.1.15,2014-11-21 16:13:00,
2014-11-21 11:18:00,21.1,12.2,30.57,WNW,298,8.0,9.0,68,0.00,,,0.00,Wunderground v.1.15,2014-11-21 16:18:00,
2014-11-21 11:23:00,21.0,10.7,30.57,WNW,302,1.0,8.0,64,0.00,,,0.00,Wunderground v.1.15,2014-11-21 16:23:00,
2014-11-21 11:28:00,21.4,11.5,30.57,NW,323,5.0,8.0,65,0.00,,,0.00,Wunderground v.1.15,2014-11-21 16:28:00,
2014-11-21 11:33:00,21.4,10.7,30.57,NNW,336,3.0,6.0,63,0.00,,,0.00,Wunderground v.1.15,2014-11-21 16:33:00,
2014-11-21 11:38:00,21.4,11.1,30.57,NW,319,3.0,10.0,64,0.00,,,0.00,Wunderground v.1.15,2014-11-21 16:38:00,
2014-11-21 11:43:00,21.6,11.3,30.57,West,260,1.0,8.0,64,0.00,,,0.00,Wunderground v.1.15,2014-11-21 16:43:00,
2014-11-21 11:48:00,21.8,11.8,30.57,WNW,288,6.0,8.0,65,0.00,,,0.00,Wunderground v.1.15,2014-11-21 16:48:00,
2014-11-21 11:53:00,21.9,11.2,30.57,WNW,299,1.0,7.0,63,0.00,,,0.00,Wunderground v.1.15,2014-11-21 16:53:00,
2014-11-21 11:58:00,22.2,11.1,30.57,NW,317,4.0,7.0,62,0.00,,,0.00,Wunderground v.1.15,2014-11-21 16:58:00,
2014-11-21 12:04:00,22.2,11.5,30.57,WNW,302,3.0,8.0,63,0.00,,,0.00,Wunderground v.1.15,2014-11-21 17:04:00,
2014-11-21 12:09:00,22.2,11.1,30.57,NW,319,2.0,8.0,62,0.00,,,0.00,Wunderground v.1.15,2014-11-21 17:09:00,
2014-11-21 12:14:00,22.4,11.7,30.57,NW,325,7.0,8.0,63,0.00,,,0.00,Wunderground v.1.15,2014-11-21 17:14:00,
2014-11-21 12:18:00,22.3,11.2,30.56,West,271,4.0,8.0,62,0.00,,,0.00,Wunderground v.1.15,2014-11-21 17:18:00,
2014-11-21 12:23:00,22.7,12.0,30.56,NW,304,2.0,8.0,63,0.00,,,0.00,Wunderground v.1.15,2014-11-21 17:23:00,
2014-11-21 12:28:00,23.0,11.5,30.56,NW,306,1.0,8.0,61,0.00,,,0.00,Wunderground v.1.15,2014-11-21 17:28:00,
2014-11-21 12:33:00,23.2,12.1,30.56,WSW,246,5.0,5.0,62,0.00,,,0.00,Wunderground v.1.15,2014-11-21 17:33:00,
2014-11-21 12:38:00,23.8,11.9,30.56,West,277,2.0,9.0,60,0.00,,,0.00,Wunderground v.1.15,2014-11-21 17:38:00,
2014-11-21 12:43:00,23.4,11.2,30.57,WNW,302,6.0,10.0,59,0.00,,,0.00,Wunderground v.1.15,2014-11-21 17:43:00,
2014-11-21 12:48:00,23.0,11.2,30.56,NNW,327,1.0,10.0,60,0.00,,,0.00,Wunderground v.1.15,2014-11-21 17:48:00,
2014-11-21 12:53:00,23.9,12.4,30.56,NW,317,5.0,9.0,61,0.00,,,0.00,Wunderground v.1.15,2014-11-21 17:53:00,
2014-11-21 12:58:00,24.1,11.8,30.56,WNW,293,4.0,9.0,59,0.00,,,0.00,Wunderground v.1.15,2014-11-21 17:58:00,
2014-11-21 13:03:00,24.1,11.8,30.56,NW,313,4.0,7.0,59,0.00,,,0.00,Wunderground v.1.15,2014-11-21 18:03:00,
2014-11-21 13:08:00,23.8,11.2,30.56,WNW,296,1.0,8.0,58,0.00,,,0.00,Wunderground v.1.15,2014-11-21 18:08:00,
2014-11-21 13:14:00,24.4,12.1,30.56,West,279,10.0,10.0,59,0.00,,,0.00,Wunderground v.1.15,2014-11-21 18:14:00,
2014-11-21 13:19:00,24.3,12.0,30.55,SW,232,4.0,10.0,59,0.00,,,0.00,Wunderground v.1.15,2014-11-21 18:19:00,
2014-11-21 13:24:00,24.8,12.5,30.55,South,185,1.0,7.0,59,0.00,,,0.00,Wunderground v.1.15,2014-11-21 18:24:00,
2014-11-21 13:29:00,25.2,13.2,30.55,SW,225,3.0,7.0,60,0.00,,,0.00,Wunderground v.1.15,2014-11-21 18:29:00,
2014-11-21 13:34:00,25.3,12.2,30.55,SW,229,1.0,7.0,57,0.00,,,0.00,Wunderground v.1.15,2014-11-21 18:34:00,
2014-11-21 13:39:00,25.2,11.7,30.55,SW,219,7.0,7.0,56,0.00,,,0.00,Wunderground v.1.15,2014-11-21 18:39:00,
2014-11-21 13:44:00,25.1,11.6,30.55,WNW,295,2.0,8.0,56,0.00,,,0.00,Wunderground v.1.15,2014-11-21 18:44:00,
2014-11-21 13:49:00,25.2,12.1,30.55,WNW,300,2.0,8.0,57,0.00,,,0.00,Wunderground v.1.15,2014-11-21 18:49:00,
2014-11-21 13:54:00,25.5,12.8,30.55,NW,305,2.0,6.0,58,0.00,,,0.00,Wunderground v.1.15,2014-11-21 18:54:00,
2014-11-21 13:59:00,25.3,11.8,30.54,SW,231,2.0,9.0,56,0.00,,,0.00,Wunderground v.1.15,2014-11-21 18:59:00,
2014-11-21 14:04:00,25.2,12.1,30.54,WNW,296,6.0,10.0,57,0.00,,,0.00,Wunderground v.1.15,2014-11-21 19:04:00,
2014-11-21 14:09:00,25.1,12.8,30.54,WSW,248,3.0,10.0,59,0.00,,,0.00,Wunderground v.1.15,2014-11-21 19:09:00,
2014-11-21 14:14:00,25.2,12.9,30.54,WNW,301,0.0,6.0,59,0.00,,,0.00,Wunderground v.1.15,2014-11-21 19:14:00,
2014-11-21 14:19:00,25.6,12.5,30.54,WSW,239,3.0,7.0,57,0.00,,,0.00,Wunderground v.1.15,2014-11-21 19:19:00,
2014-11-21 14:24:00,25.7,12.2,30.54,SE,140,2.0,6.0,56,0.00,,,0.00,Wunderground v.1.15,2014-11-21 19:24:00,
2014-11-21 14:29:00,26.0,12.8,30.54,SW,225,3.0,6.0,57,0.00,,,0.00,Wunderground v.1.15,2014-11-21 19:29:00,
2014-11-21 14:34:00,26.2,13.0,30.54,West,266,0.0,6.0,57,0.00,,,0.00,Wunderground v.1.15,2014-11-21 19:34:00,
2014-11-21 14:39:00,25.9,11.9,30.54,West,271,0.0,8.0,55,0.00,,,0.00,Wunderground v.1.15,2014-11-21 19:39:00,
2014-11-21 14:44:00,25.9,12.7,30.54,WNW,296,0.0,6.0,57,0.00,,,0.00,Wunderground v.1.15,2014-11-21 19:44:00,
2014-11-21 14:49:00,26.1,12.5,30.54,WNW,295,4.0,6.0,56,0.00,,,0.00,Wunderground v.1.15,2014-11-21 19:49:00,
2014-11-21 14:54:00,26.0,12.4,30.53,NW,317,4.0,7.0,56,0.00,,,0.00,Wunderground v.1.15,2014-11-21 19:54:00,
2014-11-21 14:59:00,26.0,12.8,30.53,NW,317,2.0,7.0,57,0.00,,,0.00,Wunderground v.1.15,2014-11-21 19:59:00,
2014-11-21 15:04:00,26.1,12.1,30.53,WSW,255,2.0,7.0,55,0.00,,,0.00,Wunderground v.1.15,2014-11-21 20:04:00,
2014-11-21 15:09:00,26.2,12.6,30.53,WSW,242,2.0,7.0,56,0.00,,,0.00,Wunderground v.1.15,2014-11-21 20:09:00,
2014-11-21 15:14:00,26.4,12.8,30.53,WSW,239,1.0,4.0,56,0.00,,,0.00,Wunderground v.1.15,2014-11-21 20:14:00,
2014-11-21 15:19:00,26.5,12.5,30.53,WSW,257,2.0,7.0,55,0.00,,,0.00,Wunderground v.1.15,2014-11-21 20:19:00,
2014-11-21 15:24:00,26.4,12.8,30.53,West,281,3.0,7.0,56,0.00,,,0.00,Wunderground v.1.15,2014-11-21 20:24:00,
2014-11-21 15:29:00,26.4,12.4,30.53,South,191,2.0,7.0,55,0.00,,,0.00,Wunderground v.1.15,2014-11-21 20:29:00,
2014-11-21 15:34:00,26.6,12.6,30.53,SSW,200,2.0,6.0,55,0.00,,,0.00,Wunderground v.1.15,2014-11-21 20:34:00,
2014-11-21 15:39:00,26.7,13.1,30.53,South,183,2.0,6.0,56,0.00,,,0.00,Wunderground v.1.15,2014-11-21 20:39:00,
2014-11-21 15:44:00,26.6,12.6,30.53,SW,222,6.0,7.0,55,0.00,,,0.00,Wunderground v.1.15,2014-11-21 20:44:00,
2014-11-21 15:49:00,26.4,12.4,30.53,SW,224,2.0,7.0,55,0.00,,,0.00,Wunderground v.1.15,2014-11-21 20:49:00,
2014-11-21 15:54:00,26.3,12.7,30.52,SSE,168,0.0,5.0,56,0.00,,,0.00,Wunderground v.1.15,2014-11-21 20:54:00,
2014-11-21 15:59:00,26.3,12.7,30.53,SSW,192,3.0,5.0,56,0.00,,,0.00,Wunderground v.1.15,2014-11-21 20:59:00,
2014-11-21 16:04:00,26.4,12.8,30.53,SW,224,2.0,5.0,56,0.00,,,0.00,Wunderground v.1.15,2014-11-21 21:04:00,
2014-11-21 16:09:00,26.5,13.3,30.53,SW,223,0.0,5.0,57,0.00,,,0.00,Wunderground v.1.15,2014-11-21 21:09:00,
2014-11-21 16:14:00,26.6,13.0,30.53,SSE,167,2.0,3.0,56,0.00,,,0.00,Wunderground v.1.15,2014-11-21 21:14:00,
2014-11-21 16:19:00,26.5,12.9,30.53,SW,232,2.0,6.0,56,0.00,,,0.00,Wunderground v.1.15,2014-11-21 21:19:00,
2014-11-21 16:24:00,26.5,13.3,30.52,SW,227,5.0,6.0,57,0.00,,,0.00,Wunderground v.1.15,2014-11-21 21:24:00,
2014-11-21 16:30:00,26.4,13.2,30.53,South,175,2.0,2.0,57,0.00,,,0.00,Wunderground v.1.15,2014-11-21 21:30:00,
2014-11-21 16:35:00,26.3,13.1,30.53,South,182,3.0,4.0,57,0.00,,,0.00,Wunderground v.1.15,2014-11-21 21:35:00,
2014-11-21 16:40:00,26.1,12.9,30.53,South,185,1.0,2.0,57,0.00,,,0.00,Wunderground v.1.15,2014-11-21 21:40:00,
2014-11-21 16:45:00,25.9,13.1,30.53,SSW,198,2.0,7.0,58,0.00,,,0.00,Wunderground v.1.15,2014-11-21 21:45:00,
2014-11-21 16:50:00,25.6,12.9,30.53,South,182,1.0,2.0,58,0.00,,,0.00,Wunderground v.1.15,2014-11-21 21:50:00,
2014-11-21 16:55:00,25.4,13.1,30.53,SSW,193,2.0,5.0,59,0.00,,,0.00,Wunderground v.1.15,2014-11-21 21:55:00,
2014-11-21 17:00:00,25.2,13.6,30.53,SSW,192,2.0,2.0,61,0.00,,,0.00,Wunderground v.1.15,2014-11-21 22:00:00,
2014-11-21 17:05:00,24.9,14.1,30.53,SW,226,5.0,7.0,63,0.00,,,0.00,Wunderground v.1.15,2014-11-21 22:05:00,
2014-11-21 17:10:00,24.6,14.1,30.53,South,180,2.0,3.0,64,0.00,,,0.00,Wunderground v.1.15,2014-11-21 22:10:00,
2014-11-21 17:15:00,24.3,14.6,30.53,South,182,1.0,6.0,66,0.00,,,0.00,Wunderground v.1.15,2014-11-21 22:15:00,
2014-11-21 17:20:00,24.2,14.5,30.53,South,176,2.0,4.0,66,0.00,,,0.00,Wunderground v.1.15,2014-11-21 22:20:00,
2014-11-21 17:25:00,23.9,14.5,30.53,SSW,192,2.0,5.0,67,0.00,,,0.00,Wunderground v.1.15,2014-11-21 22:25:00,
2014-11-21 17:30:00,23.8,14.8,30.53,South,181,2.0,3.0,68,0.00,,,0.00,Wunderground v.1.15,2014-11-21 22:30:00,
2014-11-21 17:35:00,23.6,14.6,30.53,South,169,4.0,6.0,68,0.00,,,0.00,Wunderground v.1.15,2014-11-21 22:35:00,
2014-11-21 17:40:00,23.5,14.8,30.52,SSW,193,2.0,5.0,69,0.00,,,0.00,Wunderground v.1.15,2014-11-21 22:40:00,
2014-11-21 17:45:00,23.4,15.1,30.53,South,190,4.0,8.0,70,0.00,,,0.00,Wunderground v.1.15,2014-11-21 22:45:00,
2014-11-21 17:50:00,23.3,15.0,30.53,SSE,159,3.0,4.0,70,0.00,,,0.00,Wunderground v.1.15,2014-11-21 22:50:00,
2014-11-21 17:55:00,23.2,14.9,30.52,SSW,209,5.0,6.0,70,0.00,,,0.00,Wunderground v.1.15,2014-11-21 22:55:00,
2014-11-21 18:00:00,23.1,15.1,30.53,South,184,2.0,6.0,71,0.00,,,0.00,Wunderground v.1.15,2014-11-21 23:00:00,
2014-11-21 18:05:00,23.1,15.1,30.53,SSE,151,1.0,6.0,71,0.00,,,0.00,Wunderground v.1.15,2014-11-21 23:05:00,
2014-11-21 18:10:00,23.0,15.0,30.53,South,180,0.0,2.0,71,0.00,,,0.00,Wunderground v.1.15,2014-11-21 23:10:00,
2014-11-21 18:15:00,22.8,15.1,30.52,WSW,248,1.0,6.0,72,0.00,,,0.00,Wunderground v.1.15,2014-11-21 23:15:00,
2014-11-21 18:20:00,22.7,15.0,30.52,SSW,209,0.0,4.0,72,0.00,,,0.00,Wunderground v.1.15,2014-11-21 23:20:00,
2014-11-21 18:25:00,22.6,15.2,30.52,South,177,3.0,4.0,73,0.00,,,0.00,Wunderground v.1.15,2014-11-21 23:25:00,
2014-11-21 18:30:00,22.5,15.1,30.52,South,188,3.0,5.0,73,0.00,,,0.00,Wunderground v.1.15,2014-11-21 23:30:00,
2014-11-21 18:36:00,22.4,15.1,30.52,SSE,163,1.0,5.0,73,0.00,,,0.00,Wunderground v.1.15,2014-11-21 23:36:00,
2014-11-21 18:41:00,22.3,15.0,30.52,SSE,164,2.0,3.0,73,0.00,,,0.00,Wunderground v.1.15,2014-11-21 23:41:00,
2014-11-21 18:46:00,22.2,15.2,30.52,SSW,206,2.0,4.0,74,0.00,,,0.00,Wunderground v.1.15,2014-11-21 23:46:00,
2014-11-21 18:51:00,22.1,15.1,30.52,SSW,200,2.0,3.0,74,0.00,,,0.00,Wunderground v.1.15,2014-11-21 23:51:00,
2014-11-21 18:56:00,22.0,15.0,30.52,South,175,1.0,4.0,74,0.00,,,0.00,Wunderground v.1.15,2014-11-21 23:56:00,
2014-11-21 19:01:00,21.9,14.9,30.53,South,189,2.0,6.0,74,0.00,,,0.00,Wunderground v.1.15,2014-11-22 00:01:00,
2014-11-21 19:06:00,21.9,15.2,30.52,SSE,153,2.0,6.0,75,0.00,,,0.00,Wunderground v.1.15,2014-11-22 00:06:00,
2014-11-21 19:11:00,21.8,15.1,30.52,ESE,108,0.0,2.0,75,0.00,,,0.00,Wunderground v.1.15,2014-11-22 00:11:00,
2014-11-21 19:16:00,21.7,15.0,30.52,SSE,162,3.0,7.0,75,0.00,,,0.00,Wunderground v.1.15,2014-11-22 00:16:00,
2014-11-21 19:21:00,21.7,15.0,30.52,South,182,2.0,4.0,75,0.00,,,0.00,Wunderground v.1.15,2014-11-22 00:21:00,
2014-11-21 19:26:00,21.7,15.0,30.52,South,184,2.0,4.0,75,0.00,,,0.00,Wunderground v.1.15,2014-11-22 00:26:00,
2014-11-21 19:31:00,21.6,14.9,30.51,South,189,1.0,2.0,75,0.00,,,0.00,Wunderground v.1.15,2014-11-22 00:31:00,